{"data":{"norad_id":63936,"intl_designator":"2025-098L","name":"STARLINK-34027","alt_names":[],"object_type":"PAYLOAD","status":"ACTIVE","operator":null,"country":"US","launch_date":"2025-05-13","launch_site_code":"AFWTR","launch_vehicle":null,"mission":null,"orbit_class":"UNKNOWN","rcs_meters":null,"size_class":null,"mass_kg":null,"dimensions":null,"purposes":["comms"],"wikipedia_slug":null,"has_3d_model":false,"image_url":null,"decayed_at":null,"tle_current":{"epoch":"2026-09-19T23:01:56.298432Z","epoch_age_seconds":193811,"freshness":"STALE","line1":"1 63936U 25098L   26262.95967938  .00011274  00000+0  39593-3 0  9991","line2":"2 63936  69.9998 142.1817 0003047 275.3196  84.7631 15.29590218 75711","mean_motion":15.29590218,"eccentricity":0.0003047,"inclination_deg":69.9998,"raan_deg":142.1817,"arg_perigee_deg":275.3196,"mean_anomaly_deg":84.7631,"bstar":0.00039593,"rev_number":7571,"period_min":94.142861470627,"perigee_km":474.94760206592,"apogee_km":479.12514471967,"semimajor_km":6855.1733733928,"source":"CELESTRAK","updated_at":"2026-09-21T09:00:35.150938Z"}}}